Flag for Canada Weather past 2 weeks in Morden, Manitoba, Canada

Now
37 °F

Chilly.


Feels Like: 29 °F
Forecast: 40 / 60 °F
Wind: 12 mph from Southeast

Location: Morden CDA CS

Current Time: Apr 1, 2015 at 5:12:43 AM

Latest Report: Apr 1, 2015 at 4:00 AM


Visibility: N/A

Pressure: 29.58 "Hg

Humidity: 81%

Dew point: 32 °F

Location of MordenLocation

Historic Weather in Morden — Graph

°F

Morden temperature yesterday

Maximum temperature yesterday: 56 °F (at 4:00 PM)
Minimum temperature yesterday: 36 °F (at 5:00 AM)
Average temperature yesterday: 46 °F

Past Weeks' High & Low Weather Summary

 TemperatureHumidityPressure
High56 °F (Mar 31, 4:00 PM)100% (Mar 24, 9:00 AM)30.53 "Hg (Mar 24, 9:00 AM)
Low7 °F (Mar 21, 6:00 AM)28% (Mar 17, 12:00 PM)29.43 "Hg (Mar 29, 2:00 AM)
Average33 °F70%30.08 "Hg
* Reported Mar 17 4:00 AM — Apr 1 4:00 AM, Morden, Weather by CustomWeather, © 2015

Note: Actual official high and low records may vary slightly from our data, if they occured in-between our weather recording intervals... More about our weather records

Advertising

Morden weather history for previous 24 hours

 ConditionsComfort  
Time TempWeatherWind HumidityBarometerVisibility
4:00 AM
Wed, Apr 1
37 °FChilly.12 mph81%29.58 "HgN/A
3:00 AM37 °FChilly.10 mph80%29.64 "HgN/A
2:00 AM35 °FChilly.6 mph93%29.68 "HgN/A
1:00 AM40 °FQuite cool.6 mph75%29.71 "HgN/A
12:00 AM40 °FQuite cool.5 mph78%29.74 "HgN/A
11:00 PM
Tue, Mar 31
41 °FQuite cool.5 mph74%29.76 "HgN/A
10:00 PM45 °FCool.9 mph67%29.78 "HgN/A
9:00 PM45 °FCool.7 mph69%29.80 "HgN/A
8:00 PM49 °FCool.9 mph62%29.81 "HgN/A
7:00 PM54 °FCool.13 mph49%29.82 "HgN/A
6:00 PM55 °FRefreshingly cool.13 mph49%29.83 "HgN/A
5:00 PM56 °FRefreshingly cool.10 mph48%29.83 "HgN/A
4:00 PM56 °FRefreshingly cool.10 mph47%29.85 "HgN/A
3:00 PM54 °FCool.6 mph46%29.88 "HgN/A
2:00 PM56 °FRefreshingly cool.8 mph52%29.89 "HgN/A
1:00 PM53 °FCool.6 mph51%29.90 "HgN/A
12:00 PM52 °FCool.5 mph51%29.92 "HgN/A
11:00 AM49 °FCool.5 mph55%29.93 "HgN/A
10:00 AM48 °FCool.7 mph52%29.94 "HgN/A
9:00 AM43 °FQuite cool.7 mph74%29.94 "HgN/A
8:00 AM36 °FChilly.9 mph83%29.93 "HgN/A
7:00 AM36 °FChilly.9 mph84%29.92 "HgN/A
6:00 AM37 °FChilly.8 mph83%29.90 "HgN/A
5:00 AM36 °FChilly.6 mph84%29.89 "HgN/A
Weather by CustomWeather, © 2015

See weather overviewHow to use our weather pages